Time,TemperatureF,DewpointF,PressureIn,WindDirection,WindDirectionDegrees,WindSpeedMPH,WindSpeedGustMPH,Humidity,HourlyPrecipIn,Conditions,Clouds,dailyrainin,SoftwareType,DateUTC
2013-01-31 06:01:00,46.0,44.0,30.37,SW,221,0.0,2.0,94,0.00,,,0.05,,2013-01-31 14:01:00,
2013-01-31 06:11:00,46.0,44.0,30.37,SW,221,0.0,2.0,94,0.00,,,0.05,,2013-01-31 14:11:00,
2013-01-31 06:21:00,46.0,44.0,30.37,SW,218,0.0,3.0,94,0.01,,,0.06,,2013-01-31 14:21:00,
2013-01-31 06:31:00,46.0,44.0,30.37,SSE,160,1.0,5.0,94,0.01,,,0.06,,2013-01-31 14:31:00,
2013-01-31 06:41:00,46.0,44.0,30.37,SSE,160,1.0,5.0,94,0.01,,,0.06,,2013-01-31 14:41:00,
2013-01-31 06:52:00,46.0,44.0,30.36,SSW,204,0.0,5.0,94,0.01,,,0.06,,2013-01-31 14:52:00,
2013-01-31 07:02:00,46.0,44.0,30.36,SW,223,1.0,5.0,93,0.01,,,0.06,,2013-01-31 15:02:00,
2013-01-31 07:11:00,46.0,44.0,30.36,SW,223,1.0,5.0,93,0.01,,,0.06,,2013-01-31 15:11:00,
2013-01-31 07:22:00,46.0,44.0,30.36,South,182,1.0,4.0,93,0.00,,,0.05,,2013-01-31 15:22:00,
2013-01-31 07:31:00,46.0,44.0,30.36,SW,217,0.0,4.0,93,0.00,,,0.05,,2013-01-31 15:31:00,
2013-01-31 07:42:00,46.0,44.0,30.36,SW,217,0.0,4.0,93,0.00,,,0.05,,2013-01-31 15:42:00,
2013-01-31 07:52:00,46.0,44.0,30.35,South,178,1.0,4.0,93,0.00,,,0.05,,2013-01-31 15:52:00,
2013-01-31 08:03:00,46.0,44.0,30.36,SSW,211,1.0,4.0,93,0.00,,,0.05,,2013-01-31 16:03:00,
2013-01-31 08:12:00,46.0,44.0,30.36,SSW,211,1.0,4.0,93,0.00,,,0.05,,2013-01-31 16:12:00,
2013-01-31 08:21:00,46.0,44.0,30.36,SSW,193,2.0,4.0,93,0.00,,,0.05,,2013-01-31 16:21:00,
2013-01-31 08:32:00,46.0,44.0,30.36,WSW,237,2.0,5.0,93,0.00,,,0.05,,2013-01-31 16:32:00,
2013-01-31 08:41:00,46.0,44.0,30.36,WSW,237,2.0,5.0,93,0.00,,,0.05,,2013-01-31 16:41:00,
2013-01-31 08:52:00,46.0,44.0,30.35,SSW,200,0.0,2.0,93,0.00,,,0.05,,2013-01-31 16:52:00,
2013-01-31 09:01:00,46.0,44.0,30.35,South,184,0.0,3.0,92,0.00,,,0.05,,2013-01-31 17:01:00,
2013-01-31 09:12:00,46.0,44.0,30.35,South,184,0.0,3.0,92,0.00,,,0.05,,2013-01-31 17:12:00,
2013-01-31 09:22:00,46.0,44.0,30.35,South,181,0.0,4.0,92,0.00,,,0.05,,2013-01-31 17:22:00,
2013-01-31 09:31:00,46.0,44.0,30.35,SW,214,2.0,4.0,92,0.00,,,0.05,,2013-01-31 17:31:00,
2013-01-31 09:42:00,46.0,44.0,30.35,SW,214,2.0,4.0,92,0.00,,,0.05,,2013-01-31 17:42:00,
2013-01-31 09:53:00,46.0,44.0,30.35,SSW,194,1.0,4.0,92,0.00,,,0.05,,2013-01-31 17:53:00,
2013-01-31 10:02:00,46.0,44.0,30.35,SSW,198,1.0,5.0,92,0.00,,,0.05,,2013-01-31 18:02:00,
2013-01-31 10:11:00,46.0,44.0,30.35,SSW,196,3.0,6.0,92,0.02,,,0.07,,2013-01-31 18:11:00,
2013-01-31 10:21:00,46.0,44.0,30.35,SSW,196,3.0,6.0,92,0.02,,,0.07,,2013-01-31 18:21:00,
2013-01-31 10:31:00,46.0,44.0,30.35,SW,234,3.0,10.0,92,0.03,,,0.08,,2013-01-31 18:31:00,
2013-01-31 10:42:00,46.0,44.0,30.35,SW,234,3.0,10.0,92,0.03,,,0.08,,2013-01-31 18:42:00,
2013-01-31 10:52:00,46.0,44.0,30.34,SSW,201,1.0,8.0,92,0.04,,,0.09,,2013-01-31 18:52:00,
2013-01-31 11:01:00,46.0,44.0,30.35,South,180,2.0,8.0,92,0.04,,,0.09,,2013-01-31 19:01:00,
2013-01-31 11:11:00,46.0,44.0,30.35,South,180,2.0,8.0,92,0.04,,,0.09,,2013-01-31 19:11:00,
2013-01-31 11:21:00,46.0,44.0,30.34,SSW,199,1.0,5.0,92,0.02,,,0.09,,2013-01-31 19:21:00,
2013-01-31 11:32:00,46.0,44.0,30.34,SW,216,1.0,6.0,92,0.01,,,0.09,,2013-01-31 19:32:00,
2013-01-31 11:42:00,46.0,44.0,30.34,SW,216,1.0,6.0,92,0.01,,,0.09,,2013-01-31 19:42:00,
2013-01-31 11:52:00,46.0,44.0,30.34,SSE,166,3.0,7.0,91,0.00,,,0.09,,2013-01-31 19:52:00,
2013-01-31 12:01:00,46.0,44.0,30.33,South,178,5.0,13.0,91,0.00,,,0.09,,2013-01-31 20:01:00,
2013-01-31 12:11:00,46.0,44.0,30.33,South,178,5.0,13.0,91,0.00,,,0.09,,2013-01-31 20:11:00,
2013-01-31 12:21:00,47.0,44.0,30.32,SSE,162,4.0,8.0,90,0.00,,,0.09,,2013-01-31 20:21:00,
2013-01-31 12:31:00,47.0,44.0,30.32,SE,136,1.0,7.0,90,0.00,,,0.09,,2013-01-31 20:31:00,
2013-01-31 12:41:00,47.0,44.0,30.32,SE,136,1.0,7.0,90,0.00,,,0.09,,2013-01-31 20:41:00,
2013-01-31 12:52:00,47.0,44.0,30.32,SSW,198,4.0,11.0,89,0.00,,,0.09,,2013-01-31 20:52:00,
2013-01-31 13:01:00,47.0,44.0,30.30,SSW,193,3.0,7.0,90,0.00,,,0.09,,2013-01-31 21:01:00,
2013-01-31 13:11:00,47.0,44.0,30.30,SSW,193,3.0,7.0,90,0.00,,,0.09,,2013-01-31 21:11:00,
2013-01-31 13:21:00,47.0,44.0,30.30,West,273,4.0,14.0,89,0.00,,,0.09,,2013-01-31 21:21:00,
2013-01-31 13:31:00,48.0,45.0,30.30,SSW,213,5.0,15.0,89,0.00,,,0.09,,2013-01-31 21:31:00,
2013-01-31 13:42:00,48.0,45.0,30.30,SSW,213,5.0,15.0,89,0.00,,,0.09,,2013-01-31 21:42:00,
2013-01-31 13:52:00,49.0,45.0,30.29,SSW,202,5.0,15.0,87,0.00,,,0.09,,2013-01-31 21:52:00,
2013-01-31 14:02:00,49.0,45.0,30.29,SSE,150,4.0,12.0,86,0.00,,,0.09,,2013-01-31 22:02:00,
2013-01-31 14:11:00,49.0,45.0,30.29,SSE,150,4.0,12.0,86,0.00,,,0.09,,2013-01-31 22:11:00,
2013-01-31 14:21:00,49.0,45.0,30.29,SW,227,4.0,10.0,85,0.00,,,0.09,,2013-01-31 22:21:00,
2013-01-31 14:32:00,48.0,44.0,30.29,SSW,213,2.0,10.0,87,0.00,,,0.09,,2013-01-31 22:32:00,
2013-01-31 14:42:00,48.0,44.0,30.29,SSW,213,2.0,10.0,87,0.00,,,0.09,,2013-01-31 22:42:00,
2013-01-31 14:52:00,49.0,45.0,30.29,ESE,111,2.0,13.0,87,0.00,,,0.09,,2013-01-31 22:52:00,
2013-01-31 15:01:00,48.0,44.0,30.29,South,177,6.0,13.0,86,0.00,,,0.09,,2013-01-31 23:01:00,
2013-01-31 15:11:00,48.0,44.0,30.29,South,177,6.0,13.0,86,0.00,,,0.09,,2013-01-31 23:11:00,
2013-01-31 15:21:00,48.0,44.0,30.28,SSE,156,2.0,11.0,87,0.00,,,0.09,,2013-01-31 23:21:00,
2013-01-31 15:31:00,48.0,44.0,30.28,SSW,198,3.0,9.0,87,0.00,,,0.09,,2013-01-31 23:31:00,
2013-01-31 15:41:00,48.0,44.0,30.28,SSW,198,3.0,9.0,87,0.00,,,0.09,,2013-01-31 23:41:00,
2013-01-31 15:52:00,48.0,44.0,30.28,South,175,2.0,10.0,87,0.00,,,0.09,,2013-01-31 23:52:00,
2013-01-31 16:01:00,48.0,44.0,30.29,SSW,208,2.0,8.0,87,0.00,,,0.09,,2013-02-01 00:01:00,
2013-01-31 16:11:00,48.0,44.0,30.29,SSW,208,2.0,8.0,87,0.00,,,0.09,,2013-02-01 00:11:00,
2013-01-31 16:21:00,48.0,45.0,30.29,South,181,1.0,6.0,88,0.00,,,0.09,,2013-02-01 00:21:00,
2013-01-31 16:31:00,48.0,45.0,30.29,WSW,243,1.0,6.0,88,0.00,,,0.09,,2013-02-01 00:31:00,
2013-01-31 16:42:00,48.0,45.0,30.29,WSW,243,1.0,6.0,88,0.00,,,0.09,,2013-02-01 00:42:00,
2013-01-31 16:52:00,48.0,45.0,30.29,WSW,243,1.0,3.0,88,0.00,,,0.09,,2013-02-01 00:52:00,
2013-01-31 17:01:00,48.0,45.0,30.29,SW,224,0.0,6.0,89,0.00,,,0.09,,2013-02-01 01:01:00,
2013-01-31 17:11:00,48.0,45.0,30.30,SW,234,2.0,5.0,89,0.00,,,0.08,,2013-02-01 01:11:00,
2013-01-31 17:21:00,48.0,45.0,30.30,SW,234,2.0,5.0,89,0.00,,,0.08,,2013-02-01 01:21:00,
2013-01-31 17:31:00,48.0,45.0,30.30,WSW,246,1.0,6.0,89,0.00,,,0.08,,2013-02-01 01:31:00,
2013-01-31 17:41:00,48.0,45.0,30.30,WSW,246,1.0,6.0,89,0.00,,,0.08,,2013-02-01 01:41:00,
2013-01-31 17:52:00,48.0,45.0,30.30,South,170,1.0,6.0,89,0.00,,,0.08,,2013-02-01 01:52:00,
2013-01-31 18:01:00,48.0,45.0,30.30,SSW,209,0.0,1.0,89,0.00,,,0.08,,2013-02-01 02:01:00,
2013-01-31 18:11:00,48.0,45.0,30.30,SSW,209,0.0,1.0,89,0.00,,,0.08,,2013-02-01 02:11:00,
2013-01-31 18:21:00,48.0,45.0,30.30,SW,229,0.0,4.0,90,0.00,,,0.08,,2013-02-01 02:21:00,
2013-01-31 18:31:00,47.0,44.0,30.30,SW,229,0.0,2.0,90,0.00,,,0.08,,2013-02-01 02:31:00,
2013-01-31 18:41:00,47.0,44.0,30.30,SW,229,0.0,2.0,90,0.00,,,0.08,,2013-02-01 02:41:00,
2013-01-31 18:52:00,47.0,45.0,30.30,SSW,199,1.0,4.0,91,0.00,,,0.08,,2013-02-01 02:52:00,
2013-01-31 19:01:00,47.0,45.0,30.30,SSW,201,0.0,2.0,91,0.00,,,0.08,,2013-02-01 03:01:00,
2013-01-31 19:11:00,47.0,45.0,30.30,SSW,201,0.0,2.0,91,0.00,,,0.08,,2013-02-01 03:11:00,
2013-01-31 19:21:00,47.0,45.0,30.30,SW,217,0.0,4.0,92,0.00,,,0.08,,2013-02-01 03:21:00,
2013-01-31 19:32:00,47.0,45.0,30.30,SW,217,0.0,0.0,92,0.00,,,0.08,,2013-02-01 03:32:00,
2013-01-31 19:41:00,47.0,45.0,30.30,SW,217,0.0,0.0,92,0.00,,,0.08,,2013-02-01 03:41:00,
2013-01-31 19:52:00,47.0,45.0,30.30,SW,217,0.0,0.0,92,0.00,,,0.08,,2013-02-01 03:52:00,
2013-01-31 20:01:00,47.0,45.0,30.30,SW,217,0.0,1.0,92,0.00,,,0.08,,2013-02-01 04:01:00,
2013-01-31 20:11:00,47.0,45.0,30.30,SW,217,0.0,1.0,92,0.00,,,0.08,,2013-02-01 04:11:00,
2013-01-31 20:21:00,47.0,45.0,30.30,SW,217,0.0,0.0,93,0.00,,,0.08,,2013-02-01 04:21:00,
2013-01-31 20:31:00,47.0,45.0,30.30,SW,217,0.0,0.0,93,0.00,,,0.08,,2013-02-01 04:31:00,
2013-01-31 20:41:00,47.0,45.0,30.30,SW,217,0.0,0.0,93,0.00,,,0.08,,2013-02-01 04:41:00,
2013-01-31 20:52:00,47.0,45.0,30.30,SW,217,0.0,0.0,93,0.00,,,0.08,,2013-02-01 04:52:00,
2013-01-31 21:02:00,47.0,45.0,30.31,SW,217,0.0,2.0,93,0.00,,,0.08,,2013-02-01 05:02:00,
2013-01-31 21:11:00,47.0,45.0,30.31,SW,217,0.0,2.0,93,0.00,,,0.08,,2013-02-01 05:11:00,
2013-01-31 21:22:00,47.0,45.0,30.31,SW,217,0.0,1.0,93,0.01,,,0.09,,2013-02-01 05:22:00,
2013-01-31 21:31:00,47.0,45.0,30.30,SSW,199,0.0,2.0,93,0.01,,,0.09,,2013-02-01 05:31:00,
2013-01-31 21:41:00,47.0,45.0,30.30,SSW,199,0.0,2.0,93,0.01,,,0.09,,2013-02-01 05:41:00,
2013-01-31 21:52:00,47.0,45.0,30.31,SSW,198,0.0,1.0,93,0.01,,,0.09,,2013-02-01 05:52:00,
2013-01-31 22:02:00,47.0,45.0,30.31,SSW,198,0.0,0.0,93,0.01,,,0.09,,2013-02-01 06:02:00,
2013-01-31 22:11:00,47.0,45.0,30.31,SSW,198,0.0,0.0,93,0.01,,,0.09,,2013-02-01 06:11:00,
2013-01-31 22:21:00,47.0,45.0,30.31,SSW,198,0.0,0.0,93,0.00,,,0.09,,2013-02-01 06:21:00,
2013-01-31 22:31:00,47.0,45.0,30.31,SSW,198,0.0,0.0,93,0.00,,,0.09,,2013-02-01 06:31:00,
2013-01-31 22:41:00,47.0,45.0,30.31,SSW,198,0.0,0.0,93,0.00,,,0.09,,2013-02-01 06:41:00,
2013-01-31 22:52:00,47.0,45.0,30.32,SSW,198,0.0,0.0,93,0.00,,,0.09,,2013-02-01 06:52:00,
2013-01-31 23:01:00,47.0,45.0,30.31,SSW,198,0.0,0.0,93,0.00,,,0.09,,2013-02-01 07:01:00,
2013-01-31 23:11:00,47.0,45.0,30.31,SSW,198,0.0,0.0,93,0.00,,,0.09,,2013-02-01 07:11:00,
2013-01-31 23:21:00,47.0,45.0,30.32,SSW,198,0.0,0.0,93,0.00,,,0.08,,2013-02-01 07:21:00,
2013-01-31 23:31:00,47.0,45.0,30.32,SSW,198,0.0,0.0,93,0.00,,,0.08,,2013-02-01 07:31:00,
2013-01-31 23:41:00,47.0,45.0,30.32,SSW,198,0.0,0.0,93,0.00,,,0.08,,2013-02-01 07:41:00,
2013-01-31 23:52:00,47.0,45.0,30.32,SSW,198,0.0,1.0,93,0.00,,,0.08,,2013-02-01 07:52:00,